Home   Weather   A Coruña   Past weeks

Flag for Spain Past Weather in A Coruña, Spain — Yesterday and Last 2 Weeks

Now
51 °F

Cool.


Feels Like: 47 °F
Forecast: 39 / 53 °F
Wind: 8 mph from North

Location: La Coruna

Current Time: Jan 22, 2017 at 7:27:16 pm

Latest Report: Jan 22, 2017 at 6:00 pm


Visibility: 13 mi

Pressure: 30.21 "Hg

Humidity: 74%

Dew Point: 42 °F

Location of A CoruñaLocation

Past Weather in A Coruña — Graph

°F

A Coruña Temperature Yesterday

Maximum temperature yesterday: 55 °F (at 3:00 pm)
Minimum temperature yesterday: 38 °F (at 9:00 am)
Average temperature yesterday: 45 °F

High & Low Weather Summary for the Past Weeks

 TemperatureHumidityPressure
High58 °F (Jan 17, 2:00 pm)100% (Jan 11, 6:00 am)30.60 "Hg (Jan 11, 6:00 am)
Low36 °F (Jan 20, 7:00 am)48% (Jan 8, 2:00 pm)30.13 "Hg (Jan 20, 5:00 pm)
Average48 °F79%30.36 "Hg
* Reported Jan 7 6:00 pm — Jan 22 6:00 pm, A Coruña, Weather by CustomWeather, © 2017

Note: Actual official high and low records may vary slightly from our data, if they occured in-between our weather recording intervals... More about our weather records

Advertising

A Coruña Weather History for the Previous 24 Hours

Scroll right to see more
 ConditionsComfort  
Time TempWeatherWind HumidityBarometerVisibility
6:00 pm
Sun, Jan 22
51 °FCool.8 mph74%30.21 "Hg12 mi
5:00 pm51 °FCool.8 mph73%30.20 "Hg12 mi
4:00 pm52 °FCool.7 mph77%30.20 "Hg12 mi
3:00 pm52 °FCool.5 mph74%30.20 "Hg12 mi
2:00 pm54 °FCool.2 mph67%30.22 "Hg12 mi
1:00 pm53 °FCool.3 mph71%30.24 "Hg12 mi
12:00 pm51 °FCool.2 mph73%30.25 "Hg11 mi
10:00 am40 °FPassing clouds.2 mph94%30.22 "Hg9 mi
9:00 am40 °FChilly.5 mph93%30.21 "Hg7 mi
8:00 am40 °FQuite cool.5 mph93%30.20 "Hg7 mi
7:00 am40 °FQuite cool.2 mph92%30.19 "Hg6 mi
6:00 am41 °FQuite cool.2 mph92%30.20 "Hg9 mi
5:00 am41 °FQuite cool.5 mph92%30.19 "Hg7 mi
4:00 am40 °FClear.5 mph93%30.19 "Hg12 mi
3:00 am41 °FQuite cool.2 mph92%30.19 "Hg7 mi
2:00 am42 °FQuite cool.5 mph91%30.19 "Hg7 mi
1:00 am43 °FClear.3 mph89%30.20 "Hg12 mi
12:00 am43 °FQuite cool.2 mph88%30.21 "Hg7 mi
11:00 pm
Sat, Jan 21
46 °FCool.3 mph86%30.20 "Hg9 mi
10:00 pm47 °FClear.3 mph83%30.18 "Hg16 mi
9:00 pm47 °FCool.6 mph83%30.18 "Hg9 mi
8:00 pm49 °FCool.5 mph81%30.17 "Hg12 mi
7:00 pm49 °FCool.6 mph82%30.16 "Hg12 mi
Weather by CustomWeather, © 2017

See weather overviewHow to use our weather pages